Flag for U.S.A. Weather past 2 weeks in Washington DC, District of Columbia, U.S.A.

Now
50 °F

High level clouds.


Feels Like: 50 °F
Forecast: 42 / 66 °F
Wind: No wind

Location: Reagan National Airport


UV Index: 5 (Moderate)

Visibility: 10 mi


Pressure: 30.30 "Hg

Humidity: 57%

Dew point: 35 °F

Location of Washington DCLocation

Historic Weather in Washington DC

°F

Washington DC temperature yesterday

Maximum temperature yesterday: 55 °F (at 3:52 PM)
Minimum temperature yesterday: 39 °F (at 5:52 AM)
Average temperature yesterday: 47 °F

Past Weeks' High & Low Weather Summary

 TemperatureHumidityPressure
High85 °F (Apr 13, 3:52 PM)94% (Apr 7, 4:54 PM)30.66 "Hg (Apr 7, 4:54 PM)
Low34 °F (Apr 16, 3:52 AM)14% (Apr 6, 3:52 PM)29.49 "Hg (Apr 8, 6:52 AM)
Average57 °F55%30.05 "Hg
* Reported Apr 3 9:52 PM — Apr 18 9:52 PM, Washington DC, Weather by CustomWeather, © 2014

Note: Actual official high and low records may vary slightly from our data, if they occured in-between our weather recording intervals... More about our weather records

Advertising

Historic Weather Conditions — Data for Previous 24 hours

 ConditionsComfort  
Time TempWeatherWind HumidityBarometerVisibility
9:52 PM
Apr 18
51 °FHigh level clouds.6 mph56%30.31 "Hg10 mi
8:52 PM51 °FHigh level clouds.6 mph54%30.32 "Hg10 mi
7:52 PM52 °FOvercast.6 mph50%30.31 "Hg10 mi
6:52 PM54 °FMore clouds than sun.7 mph47%30.30 "Hg10 mi
5:52 PM56 °FMore clouds than sun.No wind44%30.33 "Hg10 mi
4:52 PM55 °FPartly sunny.No wind44%30.35 "Hg10 mi
3:52 PM55 °FOvercast.No wind44%30.38 "Hg10 mi
2:52 PM52 °FOvercast.No wind49%30.39 "Hg10 mi
1:52 PM51 °FMore clouds than sun.3 mph50%30.42 "Hg10 mi
12:52 PM50 °FOvercast.No wind50%30.45 "Hg10 mi
11:52 AM49 °FMore clouds than sun.3 mph55%30.48 "Hg10 mi
10:52 AM46 °FBroken clouds.3 mph58%30.50 "Hg10 mi
9:52 AM45 °FMostly cloudy.3 mph60%30.51 "Hg10 mi
8:52 AM43 °FMore clouds than sun.6 mph65%30.51 "Hg10 mi
7:52 AM41 °FMore clouds than sun.7 mph67%30.51 "Hg10 mi
6:52 AM40 °FPassing clouds.6 mph68%30.51 "Hg10 mi
5:52 AM41 °FOvercast.5 mph67%30.52 "Hg10 mi
4:52 AM40 °FOvercast.5 mph68%30.50 "Hg10 mi
3:52 AM40 °FPassing clouds.5 mph68%30.52 "Hg10 mi
2:52 AM40 °FPassing clouds.6 mph70%30.52 "Hg10 mi
1:52 AM41 °FPassing clouds.7 mph67%30.55 "Hg10 mi
12:52 AM42 °FPassing clouds.9 mph68%30.58 "Hg10 mi
11:52 PM
Apr 17
43 °FPassing clouds.7 mph65%30.60 "Hg10 mi
Weather by CustomWeather, © 2014

See weather overview